Powrót do katalogu

STARLINK-11479

AktywnyŁącznośćVLEO
NORAD 62270·PAYLOAD·🇺🇸 United States

Wystrzelony Dec 8, 2024 z Cape Canaveral Space Force Station

Loading…

Następne Przeloty (najbliższe 24 godziny)

TLE

ŚwieżeSource: CelesTrak SupGP

Epoka: Sep 14, 2026, 20:53 UTC

1 62270C 24237D   26257.87062500  .00014916  00000+0  11575-3 0  2574
2 62270  43.0006 356.3277 0001768 264.3292 148.8931 15.70851593    14

Śledź STARLINK-11479 w czasie rzeczywistym z AllMySat

Download on the App Store